This is the latest recevied weather packets stored in our database for station/object KJ4UBX-11. If no packets are shown the sender has not sent any weather packets the latest 10 day(s).
| Time | Temp. | Humidity | Pressure | Rain* | Wind** | Luminosity | Snow |
|---|---|---|---|---|---|---|---|
| 1777760371 | 13.89° C | 77% | 1009.6 hPa | - | - | - | - |
| 1777759787 | 13.89° C | 72% | 1009.7 hPa | - | - | - | - |
| 1777759205 | 14.44° C | 73% | 1009.8 hPa | - | - | - | - |
| 1777758621 | 14.44° C | 72% | 1009.8 hPa | - | - | - | - |
| 1777758039 | 14.44° C | 71% | 1009.9 hPa | - | - | - | - |
| 1777757457 | 14.44° C | 72% | 1009.9 hPa | - | - | - | - |
| 1777756873 | 14.44° C | 70% | 1009.7 hPa | - | - | - | - |
| 1777756291 | 15° C | 69% | 1009.8 hPa | - | - | - | - |
| 1777755707 | 15° C | 67% | 1009.7 hPa | - | - | - | - |
| 1777755126 | 15.56° C | 63% | 1009.7 hPa | - | - | - | - |
| 1777754543 | 15.56° C | 59% | 1009.7 hPa | - | - | - | - |
| 1777753961 | 16.67° C | 58% | 1009.7 hPa | - | - | - | - |
| 1777753379 | 16.67° C | 58% | 1009.7 hPa | - | - | - | - |
| 1777752798 | 17.78° C | 53% | 1009.8 hPa | - | - | - | - |
| 1777752215 | 17.78° C | 54% | 1009.9 hPa | - | - | - | - |
| 1777751633 | 18.33° C | 53% | 1009.8 hPa | - | - | - | - |
| 1777751049 | 17.78° C | 54% | 1009.8 hPa | - | - | - | - |
| 1777750465 | 17.22° C | 56% | 1009.8 hPa | - | - | - | - |
| 1777749883 | 18.33° C | 53% | 1009.8 hPa | - | - | - | - |
| 1777749301 | 18.89° C | 56% | 1010 hPa | - | - | - | - |
| 1777748718 | 18.33° C | 58% | 1010.2 hPa | - | - | - | - |
| 1777748135 | 18.33° C | 56% | 1010.2 hPa | - | - | - | - |
| 1777747553 | 18.33° C | 56% | 1010.3 hPa | - | - | - | - |
| 1777746967 | 17.78° C | 63% | 1010.4 hPa | - | - | - | - |
| 1777746387 | 17.22° C | 60% | 1010.6 hPa | - | - | - | - |
* Rain since midnight (hover to see other rain measurements)
** Current wind speed in m/s (hover to see current wind gust speed)